Time,TemperatureF,DewpointF,PressureIn,WindDirection,WindDirectionDegrees,WindSpeedMPH,WindSpeedGustMPH,Humidity,HourlyPrecipIn,Conditions,Clouds,dailyrainin,SoftwareType,DateUTC
2013-08-08 00:02:00,73.0,68.0,30.07,SE,140,3.0,-999.0,83,-99.99,,,-99.99,,2013-08-08 04:02:00,
2013-08-08 00:11:00,73.0,68.0,30.07,SE,140,3.0,-999.0,83,-99.99,,,-99.99,,2013-08-08 04:11:00,
2013-08-08 00:21:00,73.0,68.0,30.07,SE,140,3.0,-999.0,83,-99.99,,,-99.99,,2013-08-08 04:21:00,
2013-08-08 00:32:00,73.0,68.0,30.07,SE,140,3.0,-999.0,83,-99.99,,,-99.99,,2013-08-08 04:32:00,
2013-08-08 02:01:00,73.0,70.0,30.06,South,170,6.0,-999.0,88,-99.99,,,-99.99,,2013-08-08 06:01:00,
2013-08-08 02:21:00,73.0,70.0,30.06,South,190,3.0,-999.0,88,0.02,,,-99.99,,2013-08-08 06:21:00,
2013-08-08 02:42:00,73.0,70.0,30.06,South,170,6.0,-999.0,88,0.02,,,-99.99,,2013-08-08 06:42:00,
2013-08-08 02:52:00,73.0,70.0,30.06,South,170,6.0,-999.0,88,0.02,,,-99.99,,2013-08-08 06:52:00,
2013-08-08 03:02:00,73.0,70.0,30.06,South,170,6.0,-999.0,88,-99.99,,,-99.99,,2013-08-08 07:02:00,
2013-08-08 03:12:00,73.0,70.0,30.06,South,170,6.0,-999.0,88,-99.99,,,-99.99,,2013-08-08 07:12:00,
2013-08-08 03:21:00,72.0,68.0,30.05,North,0,0.0,-999.0,88,0.05,,,-99.99,,2013-08-08 07:21:00,
2013-08-08 03:31:00,72.0,68.0,30.05,North,0,0.0,-999.0,88,0.01,,,-99.99,,2013-08-08 07:31:00,
2013-08-08 03:43:00,72.0,68.0,30.05,North,0,0.0,-999.0,88,0.01,,,-99.99,,2013-08-08 07:43:00,
2013-08-08 03:53:00,72.0,68.0,30.05,North,0,0.0,-999.0,88,0.01,,,-99.99,,2013-08-08 07:53:00,
2013-08-08 04:01:00,72.0,68.0,30.05,North,0,0.0,-999.0,88,0.01,,,-99.99,,2013-08-08 08:01:00,
2013-08-08 04:21:00,72.0,70.0,30.04,North,0,0.0,-999.0,94,0.01,,,-99.99,,2013-08-08 08:21:00,
2013-08-08 04:32:00,72.0,70.0,30.04,North,0,0.0,-999.0,94,0.01,,,-99.99,,2013-08-08 08:32:00,
2013-08-08 04:43:00,72.0,70.0,30.04,North,0,0.0,-999.0,94,0.01,,,-99.99,,2013-08-08 08:43:00,
2013-08-08 04:52:00,72.0,70.0,30.04,North,0,0.0,-999.0,94,0.01,,,-99.99,,2013-08-08 08:52:00,
2013-08-08 05:02:00,72.0,70.0,30.04,North,0,0.0,-999.0,94,-99.99,,,-99.99,,2013-08-08 09:02:00,
2013-08-08 08:11:00,73.0,72.0,30.06,North,0,0.0,-999.0,94,-99.99,,,-99.99,,2013-08-08 12:11:00,
2013-08-08 08:21:00,73.0,72.0,30.05,North,0,0.0,-999.0,94,-99.99,,,0.08,,2013-08-08 12:21:00,
2013-08-08 08:32:00,73.0,72.0,30.06,North,0,0.0,-999.0,94,-99.99,,,-99.99,,2013-08-08 12:32:00,
2013-08-08 08:43:00,73.0,72.0,30.06,North,0,0.0,-999.0,94,-99.99,,,-99.99,,2013-08-08 12:43:00,
2013-08-08 08:52:00,73.0,72.0,30.06,North,0,0.0,-999.0,94,-99.99,,,-99.99,,2013-08-08 12:52:00,
2013-08-08 09:01:00,73.0,72.0,30.06,North,0,0.0,-999.0,94,-99.99,,,-99.99,,2013-08-08 13:01:00,
2013-08-08 09:32:00,75.0,72.0,30.06,South,170,3.0,-999.0,88,-99.99,,,-99.99,,2013-08-08 13:32:00,
2013-08-08 09:43:00,75.0,72.0,30.06,South,170,3.0,-999.0,88,-99.99,,,-99.99,,2013-08-08 13:43:00,
2013-08-08 09:52:00,75.0,72.0,30.06,South,170,3.0,-999.0,88,-99.99,,,-99.99,,2013-08-08 13:52:00,
2013-08-08 10:02:00,75.0,72.0,30.06,South,170,3.0,-999.0,88,-99.99,,,-99.99,,2013-08-08 14:02:00,
2013-08-08 10:11:00,75.0,72.0,30.06,South,170,3.0,-999.0,88,-99.99,,,-99.99,,2013-08-08 14:11:00,
2013-08-08 11:02:00,81.0,72.0,30.05,West,260,6.0,-999.0,74,-99.99,,,-99.99,,2013-08-08 15:02:00,
2013-08-08 11:12:00,81.0,72.0,30.05,West,260,6.0,-999.0,74,-99.99,,,-99.99,,2013-08-08 15:12:00,
2013-08-08 11:22:00,81.0,72.0,30.05,West,260,6.0,-999.0,74,-99.99,,,-99.99,,2013-08-08 15:22:00,
2013-08-08 11:32:00,81.0,72.0,30.05,West,260,6.0,-999.0,74,-99.99,,,-99.99,,2013-08-08 15:32:00,
2013-08-08 11:43:00,81.0,72.0,30.05,West,260,6.0,-999.0,74,-99.99,,,-99.99,,2013-08-08 15:43:00,
2013-08-08 18:11:00,75.0,72.0,30.03,East,100,7.0,-999.0,88,0.52,,,-99.99,,2013-08-08 22:11:00,
2013-08-08 18:22:00,75.0,72.0,30.03,East,100,7.0,-999.0,88,0.52,,,-99.99,,2013-08-08 22:22:00,
2013-08-08 18:32:00,75.0,72.0,30.03,East,100,7.0,-999.0,88,0.52,,,-99.99,,2013-08-08 22:32:00,
2013-08-08 18:43:00,75.0,72.0,30.03,East,100,7.0,-999.0,88,-99.99,,,-99.99,,2013-08-08 22:43:00,
2013-08-08 18:52:00,75.0,72.0,30.03,East,100,7.0,-999.0,88,-99.99,,,-99.99,,2013-08-08 22:52:00,